Other Public Products
Issued by NWS Grand Forks, ND

Home | Current Version | Previous Version | Graphics & Text | Print | Product List | Glossary On
Versions: 1 2 3 4 5 6 7 8 9 10 11 12 13 14 15 16 17 18 19 20 21 22 23 24 25 26 27 28 29 30 31 32 33 34 35 36 37 38 39 40 41 42 43 44 45 46 47 48 49 50
000
FPUS83 KFGF 240610
OPUFGF
PRAIRIE TO PINES WEATHER ROUNDUP
NATIONAL WEATHER SERVICE EASTERN NORTH DAKOTA/GRAND FORKS ND
1200 AM CST SAT FEB 24 2018

 **SATELLITE DATA USED TO AUGMENT SKY COVER AT AUTOMATED STATIONS**
 *****  WEATHER ACROSS EASTERN NORTH DAKOTA  *****

CITY           SKY/WX    TMP DP  RH WIND       PRES   REMARKS
GRAND FORKS    FAIR       4   0  83 S10       30.20F WCI -11
6HR MIN TEMP:   0; 6HR MAX TEMP:  13;

GRND FORKS AFB NOT AVBL
GRND FORKS NWS   N/A      6   3  89 SW7       30.18F WCI  -6
BUXTON           N/A      4   4  99 S6          N/A  WCI  -7
DEVILS LAKE    FAIR       3  -1  83 SE6       30.11F WCI  -8
6HR MIN TEMP:   0; 6HR MAX TEMP:  10;

FARGO          FAIR       2  -1  88 S9        30.24F WCI -13
6HR MIN TEMP:   2; 6HR MAX TEMP:  10;

WAHPETON ARPT  FAIR     -13 -18  77 CALM      30.27F
$$

 *****  WEATHER ACROSS CENTRAL AND WESTERN NORTH DAKOTA  *****

CITY           SKY/WX    TMP DP  RH WIND       PRES   REMARKS
JAMESTOWN      FAIR       2  -1  88 S3        30.14F
6HR MIN TEMP:   2; 6HR MAX TEMP:  13;

BISMARCK       FAIR       2  -1  88 E6        30.12F WCI  -9
6HR MIN TEMP:   0; 6HR MAX TEMP:  17;

MINOT          FAIR      14   1  56 S8        29.97F WCI   3
6HR MIN TEMP:   6; 6HR MAX TEMP:  15;

MINOT AFB      FAIR      11   1  63 SW18        N/A  WCI  -7
6HR MIN TEMP:   1; 6HR MAX TEMP:  12;

GARRISON         N/A      2  -1  88 S5        30.03F WCI  -8
6HR MIN TEMP:   0; 6HR MAX TEMP:  10;

WILLISTON      FAIR      -2  -4  91 SW5       29.96F WCI -12
6HR MIN TEMP:  -2; 6HR MAX TEMP:  12;

DICKINSON      FAIR       4  -4  69 S13       29.94F WCI -13
6HR MIN TEMP:   1; 6HR MAX TEMP:  13;

HETTINGER      FAIR       1  -5  75 S3        30.00F
6HR MIN TEMP:   1; 6HR MAX TEMP:   8;

$$

 *****  OTHER OBSERVATIONS NORTHEAST NORTH DAKOTA  *****

CITY           SKY/WX    TMP DP  RH WIND       PRES   REMARKS
WALHALLA       FAIR      10   7  85 SW9       30.11F WCI  -2
LANGDON        FAIR       0  -2  92 S12       30.07F WCI -18
CAVALIER         N/A      7   3  85 S9        30.14F WCI  -7
GRAFTON        FAIR       3   0  85 S9        30.19F WCI -11
CANDO          FAIR      -2  -6  84 SE9       30.09F WCI -18
FORT TOTTEN      N/A      4   0  83 S7        29.95S WCI  -8
ROLLA          FAIR       3   0  85 S6G12     30.01F WCI  -8
RUGBY          FAIR       3   0  85 S9        30.04F WCI -11
 ***** THE ABOVE OBSERVATIONS ARE NON NWS ARE NOT QUALITY
        CONTROLLED AND MAY MIS-REPORT RAIN FOR SNOW...
$$

 *****  OTHER OBSERVATIONS SOUTHEAST NORTH DAKOTA *****

CITY           SKY/WX    TMP DP  RH WIND       PRES   REMARKS
COOPERSTOWN    FAIR       5   1  85 SW9       30.16F WCI  -9
VALLEY CITY    FAIR       1   1 100 S6        30.19F WCI -10
OAKES            N/A    -11 -15  84 S8        30.20F WCI -28
GWINNER          N/A     -6  -9  84 S10       30.21F WCI -23
SHEYENNE NWR     N/A     -3  -6  86 CALM      29.95S
BUFFALO          N/A      6   3  84 E10         N/A  WCI  -8
WYNDMERE       NOT AVBL
 ***** THE ABOVE OBSERVATIONS ARE NON NWS ARE NOT QUALITY
       CONTROLLED AND MAY MIS-REPORT RAIN FOR SNOW...
$$

  *****  WEATHER ACROSS NORTHERN MINNESOTA  *****

CITY           SKY/WX    TMP DP  RH WIND       PRES   REMARKS
FLAG ISLAND    FAIR       5   1  85 S6        30.14S WCI  -6
WARROAD        FAIR       5   1  85 SW9       30.16S WCI  -9
ROSEAU         FAIR       1  -2  85 S7        30.16F WCI -11
HALLOCK        FAIR       1   0  92 S10       30.16F WCI -14
THF RVR FALLS  FAIR       4   0  83 SW13      30.20F WCI -13
6HR MIN TEMP:  -1; 6HR MAX TEMP:  10; 6HR PCP: TRACE;

HALSTAD        NOT AVBL
FOSSTON        FAIR      -4  -8  84 S6        30.21F WCI -16
BAUDETTE       FAIR       3   0  87 SW3       30.16S
6HR MIN TEMP:   3; 6HR MAX TEMP:  18;

WASKISH        FAIR       7   3  85 SW8       30.19S WCI  -6
CROOKSTON      FAIR       0  -2  92 S9        30.23S WCI -16
$$
  *****  WEATHER ACROSS CENTRAL AND WEST MINNESOTA  *****

CITY           SKY/WX    TMP DP  RH WIND       PRES   REMARKS
BEMIDJI        FAIR       3   0  88 SW5       30.19S WCI  -6
6HR MIN TEMP:   3; 6HR MAX TEMP:  16;

PARK RAPIDS    FAIR       0  -5  79 SW3       30.20F
6HR MIN TEMP:  -3; 6HR MAX TEMP:  16;

WADENA         FAIR       0  -2  92 CALM      30.23F
DETROIT LAKES  FAIR       3   1  92 CALM      30.23F
MOORHEAD       FAIR      -4  -9  77 S8        30.25F WCI -19
FERGUS FALLS   FAIR       3   0  85 CALM      30.26F
ELBOW LAKE     FAIR      -6 -10  85 E3        30.26S
6HR MIN TEMP:  -8; 6HR MAX TEMP:  10;

MORRIS MN      HAZE     -11 -18  70 CALM      30.25F VSB 1/2
STAPLES        FAIR      -2  -6  84 CALM      30.24S
WHEATON        FAIR     -11 -17  77 SE3       30.27F
$$
  *****  WEATHER ELSEWHERE ACROSS MINNESOTA  *****

CITY           SKY/WX    TMP DP  RH WIND       PRES   REMARKS
DULUTH         FAIR      21  12  68 NW8       30.18S WCI  11
6HR MIN TEMP:  20; 6HR MAX TEMP:  30;

INTRNTL FALLS  FAIR       3   0  87 SW5       30.18R WCI  -6
6HR MIN TEMP:   2; 6HR MAX TEMP:  25;

ELY            FAIR      12   7  79 W7        30.17R WCI   2
CLOQUET        FAIR      19  12  73 W7        30.20S WCI  10
BRAINERD       FAIR       7   1  76 CALM      30.24F
6HR MIN TEMP:   5; 6HR MAX TEMP:  26;

HIBBING        FAIR       3   0  87 CALM      30.19R
6HR MIN TEMP:   3; 6HR MAX TEMP:  26;

ALEXANDRIA     FAIR       0  -4  83 SW3       30.23F FOG
6HR MIN TEMP:  -1; 6HR MAX TEMP:  15;

SAINT CLOUD    FAIR       6   5  95 CALM      30.26F
6HR MIN TEMP:   2; 6HR MAX TEMP:  23;

MINNEAPOLIS    FAIR      17  14  88 NW3       30.28F
6HR MIN TEMP:  16; 6HR MAX TEMP:  27;

$$

  *****  WEATHER ACROSS SOUTH DAKOTA  *****

CITY           SKY/WX    TMP DP  RH WIND       PRES   REMARKS
SIOUX FALLS    FOG       15  14  95 E3        30.23F VSB 1/4
6HR MIN TEMP:  15; 6HR MAX TEMP:  18;

BROOKINGS      FOG        8   6  92 CALM      30.21F VSB 1/4
WATERTOWN      FOG       -3  -5  90 CALM      30.19F VSB 1/4
6HR MIN TEMP:  -3; 6HR MAX TEMP:   8;

HURON          FOG       -7  -9  91 CALM      30.21F VSB 1/2
6HR MIN TEMP:  -8; 6HR MAX TEMP:  15;

SISSETON         N/A     -5  -7  91 SE5       30.23F WCI -16
ABERDEEN       FOG      -10 -13  86 CALM      30.22F VSB 1/4
6HR MIN TEMP: -11; 6HR MAX TEMP:   7;

MITCHELL       CLOUDY    -1  -6  79 CALM      30.23F
PIERRE         FAIR      -5  -6  96 E3        30.13F
6HR MIN TEMP:  -6; 6HR MAX TEMP:  10;

MOBRIDGE       FAIR       0  -5  79 SE8       30.09F WCI -14
RAPID CITY     FAIR      14   4  64 S15       29.96F WCI  -1
6HR MIN TEMP:   9; 6HR MAX TEMP:  15;

$$

  *****  SOME WEATHER IN NEARBY STATES *****

CITY           SKY/WX    TMP DP  RH WIND       PRES   REMARKS
GLASGOW MT     FAIR      -3  -8  79 SE13      29.85F WCI -22
6HR MIN TEMP:  -4; 6HR MAX TEMP:   3;

GREAT FALLS MT FAIR      15   5  64 SW21      29.77F WCI  -2
6HR MIN TEMP:  13; 6HR MAX TEMP:  20;

CHEYENNE WY    CLOUDY    21  21 100 SW8       29.85F WCI  11
6HR MIN TEMP:  20; 6HR MAX TEMP:  23; 6HR PCP:  0.07;

SCOTTSBLUFF NE LGT SNOW  22  19  89 SE10      29.96F FOG     WCI  11
6HR MIN TEMP:  17; 6HR MAX TEMP:  24; 6HR PCP: TRACE;

OMAHA NE       CLOUDY    22  19  89 NE10      30.25F WCI  11
6HR MIN TEMP:  22; 6HR MAX TEMP:  26;

DES MOINES IA  CLOUDY    26  21  81 NE8       30.27F WCI  18
6HR MIN TEMP:  26; 6HR MAX TEMP:  28;

DAVENPORT IA   FAIR      30  26  85 N7        30.29F WCI  23
6HR MIN TEMP:  30; 6HR MAX TEMP:  34;

CHICAGO IL     CLOUDY    33  28  81 NW7       30.26S
6HR MIN TEMP:  33; 6HR MAX TEMP:  39;

EAU CLAIRE WI  FOG       13  10  88 CALM      30.26F VSB 1/4
6HR MIN TEMP:  10; 6HR MAX TEMP:  25;

LA CROSSE WI   NOT AVBL
$$

  *****  SOME NATIONAL WEATHER *****

CITY           SKY/WX    TMP DP  RH WIND       PRES   REMARKS
LA GUARDIA NY  CLOUDY    45  40  82 W13G23    30.17R



USA.gov is the U.S. government's official web portal to all federal, state and local government web resources and services.